This is the latest recevied weather packets stored in our database for station/object K3MV-13. If no packets are shown the sender has not sent any weather packets the latest 10 day(s).
| Time | Temp. | Humidity | Pressure | Rain* | Wind** | Luminosity | Snow |
|---|---|---|---|---|---|---|---|
| 1777504814 | 13.33° C | 96% | 1007 hPa | 0 mm | - | 47 W/m² | - |
| 1777504511 | 13.89° C | 96% | 1007 hPa | 0 mm | - | 34 W/m² | - |
| 1777504206 | 13.89° C | 96% | 1007.4 hPa | 0 mm | - | 33 W/m² | - |
| 1777503902 | 13.89° C | 96% | 1007.3 hPa | 0 mm | - | 25 W/m² | - |
| 1777503598 | 13.89° C | 96% | 1007 hPa | 0 mm | - | 52 W/m² | - |
| 1777503296 | 13.89° C | 96% | 1007.2 hPa | 1.78 mm | - | 68 W/m² | - |
| 1777502992 | 13.33° C | 96% | 1006.9 hPa | 1.78 mm | - | 42 W/m² | - |
| 1777502690 | 13.33° C | 95% | 1007.2 hPa | 0 mm | - | 38 W/m² | - |
| 1777502386 | 13.33° C | 96% | 1007.8 hPa | 0 mm | - | 27 W/m² | - |
| 1777502083 | 13.33° C | 96% | 1007.3 hPa | 0 mm | - | 20 W/m² | - |
| 1777501780 | 13.33° C | 96% | 1006.9 hPa | 0 mm | - | 53 W/m² | - |
| 1777501478 | 13.33° C | 96% | 1006.9 hPa | 0 mm | - | 68 W/m² | - |
| 1777501174 | 13.33° C | 96% | 1007 hPa | 0 mm | - | 31 W/m² | - |
| 1777500872 | 13.33° C | 96% | 1006.8 hPa | 0 mm | - | 75 W/m² | - |
| 1777500569 | 13.89° C | 96% | 1006.8 hPa | 3.05 mm | - | 51 W/m² | - |
| 1777500266 | 13.89° C | 96% | 1006.8 hPa | 8.89 mm | - | 108 W/m² | - |
| 1777499962 | 13.89° C | 96% | 1006.8 hPa | 6.1 mm | - | 18 W/m² | - |
| 1777499659 | 13.89° C | 96% | 1006.5 hPa | 1.27 mm | - | 13 W/m² | - |
| 1777499356 | 13.89° C | 96% | 1006.6 hPa | 1.27 mm | - | 16 W/m² | - |
| 1777499055 | 13.89° C | 96% | 1006.3 hPa | 0 mm | - | 46 W/m² | - |
| 1777498750 | 13.89° C | 96% | 1006.4 hPa | 0 mm | - | 56 W/m² | - |
| 1777498447 | 13.89° C | 96% | 1006.4 hPa | 0 mm | - | 33 W/m² | - |
| 1777498144 | 13.89° C | 96% | 1006.6 hPa | 1.78 mm | - | 36 W/m² | - |
| 1777497841 | 13.89° C | 96% | 1006.4 hPa | 1.78 mm | - | 75 W/m² | - |
| 1777497537 | 13.89° C | 96% | 1006.5 hPa | 0 mm | - | 106 W/m² | - |
* Rain latest hour (hover to see other rain measurements)
** Current wind speed in m/s (hover to see current wind gust speed)